Dewpoint
12 6 8 12 11 8 8 7 4 5 6 3 3 3 0 -2 -4 -5 -7 -4 -1 -1 -1 0 10 51 52 53 51 54 55 54 55 55 57 57 57 57 58 58 58 58 59 60 62 62 63 63 64 65 65 65 66 66 66 65 65 65 65 66 65 67 67 66 66 66 66 65 66 66 66 65 65 65 66 65 67 66 67 66 66 66 66 65 65 65
7 8 10 11 10 7 5 6 7 4 5 1 -0 1 -2 -5 -6 -4 -6 -6 -1 6 1 5 37 49 50 52 52 53 54 52 55 56 57 57 58 57 58 57 58 58 59 60 61 63 63 63 64 65 64 65 64 65 65 64 64 65 66 66 65 66 66 67 67 67 67 66 67 65 65 65 65 65 65 65 65 65 65 65 64 64 64 63 63 64
10 11 11 11 9 5 2 3 6 6 3 1 -1 -1 -2 -5 -6 -3 -5 -6 2 4 6 2 49 48 48 52 53 53 53 54 55 56 57 58 57 57 57 58 57 58 59 60 61 62 63 63 64 64 64 64 64 65 64 65 65 65 65 65 65 65 66 66 66 67 67 67 66 66 65 66 65 66 66 64 65 64 63 64 63 62 62 61 60 61
11 8 9 9 5 0 1 4 6 5 5 4 1 -1 -1 -3 -6 -4 -5 -4 3 7 6 7 47 50 52 50 52 53 53 55 58 58 58 58 58 58 57 57 57 58 59 59 60 61 62 63 63 64 64 64 65 65 65 65 65 64 65 65 65 65 65 65 66 66 67 66 66 66 66 66 65 65 65 65 65 63 63 61 61 61 60 59 59 58
7 6 6 4 2 1 2 4 5 6 4 4 -1 -2 -3 -2 -5 -5 -4 -4 1 5 7 28 46 48 50 50 51 54 55 55 56 55 56 56 59 60 60 59 57 57 58 59 60 61 62 62 62 63 63 64 63 64 64 64 64 64 64 65 65 66 65 66 66 67 66 66 66 66 65 66 66 66 65 64 63 62 61 60 60 59 59 58 58 59
6 4 3 3 3 1 0 -0 1 3 3 2 0 -0 1 -1 -4 -5 -4 0 7 9 22 21 38 41 47 48 49 52 54 54 54 55 55 56 57 57 59 59 59 59 59 59 60 60 61 62 62 62 63 63 64 64 64 64 64 64 65 65 65 66 66 66 65 66 65 64 64 65 63 62 63 63 63 61 61 60 60 59 60 59 57 57 58 57
3 3 2 2 2 -0 -0 2 4 3 3 5 -0 1 5 4 -2 -5 -1 5 11 10 28 22 30 29 45 45 47 50 51 52 54 55 56 56 56 56 57 59 58 57 58 58 59 60 61 62 62 63 62 63 63 63 64 64 64 65 65 65 65 65 65 66 66 66 64 63 64 63 63 63 63 61 61 61 61 61 60 60 59 58 58 55 56 56
3 4 2 2 2 2 3 3 1 1 -1 -3 1 7 8 7 1 -3 -1 11 14 15 31 29 23 20 37 41 46 49 49 50 53 53 54 56 56 56 58 58 58 57 58 58 58 59 60 61 61 61 62 62 63 64 64 64 64 64 64 65 65 65 65 66 66 66 65 64 64 63 62 61 61 60 60 60 60 60 59 58 58 57 57 55 54 55
7 4 3 3 3 2 2 1 -1 -2 -4 -1 6 6 6 6 2 -3 -2 7 12 16 15 32 22 24 27 37 44 49 48 48 50 51 53 56 56 55 56 57 58 58 58 58 58 59 60 61 61 61 61 61 62 62 63 63 63 64 64 63 63 63 64 65 65 65 65 65 63 62 61 61 60 60 60 58 58 58 58 57 56 56 56 57 55 53
2 5 4 4 3 2 3 -1 -3 -2 -2 2 5 6 5 3 -0 -1 0 7 12 16 18 14 20 25 25 32 44 46 47 47 48 51 52 55 55 55 56 57 58 58 57 58 59 59 59 60 60 60 60 60 61 62 62 61 61 61 61 60 60 60 60 61 61 61 62 63 63 62 61 60 60 60 59 58 58 57 57 55 55 55 56 56 54 54
3 13 12 5 4 3 1 -1 -0 0 1 1 3 -2 -3 -3 -1 7 8 10 17 18 17 15 23 27 24 33 37 43 43 45 47 50 51 53 54 56 55 57 57 57 57 58 59 60 60 60 60 60 60 60 61 61 60 60 60 59 59 59 59 59 59 59 60 60 60 60 60 61 60 60 59 59 58 57 57 56 55 54 53 54 55 54 54 54
4 5 5 4 6 2 2 0 -2 -5 -4 -2 1 -2 -1 4 5 12 13 14 22 20 19 16 10 25 24 32 37 42 44 46 49 50 51 53 54 55 55 55 56 57 58 59 59 60 60 60 60 60 59 59 59 59 59 59 59 59 59 58 58 58 58 58 58 59 58 59 59 59 59 59 59 58 57 56 55 54 53 53 53 55 54 53 53 53
3 5 7 6 12 3 0 -4 -4 1 3 3 3 -0 7 6 7 9 15 18 17 16 16 11 9 16 23 26 41 41 41 46 47 48 51 52 52 54 54 55 55 56 58 59 58 59 59 59 59 59 58 58 58 58 58 58 59 58 57 57 56 56 56 56 57 57 58 58 57 58 58 57 58 57 55 54 54 55 54 53 53 54 51 52 51 51
4 4 6 3 -3 1 -0 -1 -0 -4 -3 -1 -2 6 8 6 8 16 14 16 16 16 14 12 13 9 20 25 29 39 39 47 46 50 52 52 52 53 54 55 55 55 57 58 58 58 59 58 58 57 57 56 57 57 58 58 58 57 57 56 55 55 56 56 56 56 56 56 57 57 57 56 55 55 55 54 52 53 52 53 52 51 51 50 50 50
8 -0 -2 -0 2 4 3 0 -3 -3 -3 -6 -0 5 11 12 14 17 13 15 14 14 13 10 11 14 16 32 43 40 40 51 52 52 52 53 53 54 54 54 54 57 57 57 57 58 58 58 57 57 56 57 56 57 57 57 56 56 55 55 54 54 54 55 55 55 55 55 55 55 54 54 54 53 52 52 53 52 52 53 52 51 51 50 49 49
4 7 4 5 5 5 4 1 -3 -4 -5 -6 2 7 8 13 12 8 15 15 18 15 16 14 20 23 22 43 40 41 39 47 51 51 52 51 55 55 55 54 54 56 56 56 57 57 57 57 56 56 57 57 56 56 56 55 55 55 55 55 54 53 53 54 53 53 53 53 53 53 53 52 53 52 52 52 52 52 54 52 50 51 51 50 49 49
4 10 7 6 5 3 3 1 -3 -4 4 -0 2 8 7 5 6 21 20 23 27 20 15 20 21 36 37 40 36 34 34 36 40 49 48 53 54 54 54 52 54 55 56 57 57 56 56 56 56 56 56 56 56 55 55 55 55 55 55 54 53 52 52 52 52 52 51 52 52 52 52 52 52 51 50 51 51 51 52 52 51 50 49 50 50 49
11 11 8 6 4 -1 -0 -2 -4 -4 -3 -3 3 5 6 3 8 19 11 18 16 16 18 17 14 31 26 31 34 32 34 35 38 48 51 52 52 50 51 53 54 55 56 57 57 56 56 55 55 55 55 55 55 55 54 55 56 55 55 53 51 51 51 50 50 50 50 50 50 51 51 51 51 50 49 50 49 50 50 51 50 50 49 48 48 47
8 11 9 7 3 -1 -2 -2 -5 -4 -2 -4 1 5 6 13 10 13 21 16 15 16 14 12 11 17 20 27 30 31 32 36 37 41 43 43 48 48 49 52 55 55 56 56 56 56 55 55 55 55 55 54 54 55 54 54 54 53 53 51 51 51 50 50 50 50 50 50 50 50 50 50 50 50 50 50 50 50 49 48 48 47 48 48 48 47
17 14 8 5 1 -3 -3 -4 3 -1 -1 -2 -1 0 3 10 14 12 19 13 14 13 17 10 9 17 20 24 31 31 32 40 39 38 40 46 47 48 50 52 54 55 56 56 56 56 55 55 54 54 54 53 53 53 53 54 54 52 52 51 50 50 50 50 49 50 49 49 49 49 49 49 47 47 47 48 49 49 47 45 45 46 47 47 46 45
16 23 10 2 -2 -3 -2 0 1 0 1 -4 1 3 2 16 7 7 20 9 11 13 12 12 12 20 25 26 29 31 32 41 41 41 41 48 48 50 52 53 55 55 55 56 56 56 55 55 54 54 54 53 53 53 53 53 52 52 51 50 50 49 49 48 48 48 48 48 48 49 49 49 49 48 47 48 49 48 47 47 46 46 45 44 45 45
19 16 21 9 4 2 1 0 -0 0 -1 -2 2 2 -2 4 6 7 10 7 7 11 16 11 12 21 40 37 37 33 34 43 40 40 42 48 50 51 54 55 55 55 55 55 55 55 55 54 53 53 53 53 52 51 51 51 50 49 49 50 49 48 48 48 47 47 47 48 48 48 48 48 48 47 47 48 47 46 45 45 46 46 45 44 43 42
21 22 19 17 10 5 -1 -1 1 1 0 -1 -2 -1 -3 7 9 7 11 12 6 8 9 12 15 23 44 43 34 36 32 38 42 44 47 50 50 51 53 53 54 56 55 55 55 55 54 53 53 52 52 52 51 51 51 50 50 49 49 49 49 48 48 48 47 46 47 47 48 48 48 47 47 46 47 47 46 45 44 45 45 44 44 43 44 43
29 19 16 11 6 4 2 0 2 0 -2 -3 -3 -2 -2 3 4 9 12 18 14 15 11 13 16 32 44 46 40 35 35 34 46 48 47 48 50 52 52 54 54 56 55 55 54 54 54 53 52 51 51 51 50 51 50 50 49 49 48 48 47 47 47 47 46 46 46 47 47 47 47 47 47 46 45 45 46 45 46 45 45 44 43 42 44 42
20 24 16 13 12 9 7 2 -1 -3 -3 3 3 5 3 1 -0 10 12 24 17 16 9 10 8 30 46 48 31 32 31 32 41 42 45 48 53 53 52 54 55 55 55 54 54 53 52 52 51 50 50 50 50 49 50 49 48 48 48 47 46 46 46 46 46 46 46 46 46 47 47 48 47 47 47 47 46 46 45 45 44 44 41 43 42 41
19 25 20 14 14 11 9 6 4 4 2 7 3 0 3 3 9 16 14 14 14 20 10 13 13 37 41 41 32 33 31 33 36 44 47 49 52 53 53 54 54 55 54 53 53 52 51 51 50 50 50 49 49 49 49 48 48 46 46 47 47 46 46 45 45 45 45 45 45 46 46 47 47 46 46 45 46 46 45 45 43 43 42 40 40 41
27 28 22 18 12 8 11 6 7 3 2 3 7 4 4 6 5 15 17 15 13 17 16 17 18 32 37 34 28 33 36 32 34 48 49 49 49 54 55 54 54 55 54 53 53 52 51 51 50 50 50 49 49 49 48 47 47 46 46 46 46 45 46 45 46 45 45 46 46 45 45 45 46 46 46 46 46 45 43 43 44 41 40 41 41 41
21 18 21 25 18 9 4 4 5 5 3 2 2 8 3 5 14 23 18 16 19 15 12 21 36 36 30 31 32 37 40 37 41 45 45 48 50 54 54 54 53 54 53 53 52 51 50 50 50 50 50 49 49 49 48 47 45 46 46 45 45 45 46 47 46 45 45 44 44 44 45 45 45 44 44 45 44 43 44 43 43 43 43 42 42 41
23 20 21 22 15 8 7 6 3 6 3 3 1 6 11 5 11 21 25 17 24 17 13 29 35 31 25 31 34 36 40 43 43 46 46 49 50 53 53 53 53 52 52 52 51 51 50 50 50 49 49 49 49 48 47 46 45 46 45 44 44 44 45 45 45 44 43 44 44 44 44 45 44 44 44 43 43 43 42 42 42 42 42 42 42 43
24 18 24 16 16 13 11 6 5 6 8 3 3 4 8 10 12 14 17 18 19 24 23 25 34 32 27 31 35 38 45 44 46 47 50 51 52 52 52 52 52 51 51 50 51 50 50 49 49 49 49 49 48 47 45 45 45 44 44 44 44 44 44 45 45 43 43 43 43 43 41 41 43 42 42 42 42 42 42 41 43 43 42 41 41 41
23 18 23 17 15 18 15 11 10 8 9 12 4 5 11 11 10 10 15 23 26 24 26 28 27 27 27 35 34 39 44 45 47 47 49 51 52 52 51 51 51 51 50 50 50 50 49 49 49 48 48 48 47 47 46 45 44 44 43 44 43 43 44 43 43 42 41 40 40 40 40 40 40 41 40 41 42 42 41 41 43 42 42 42 42 42
28 24 19 21 19 19 18 16 20 15 13 16 18 18 16 15 21 20 19 23 22 23 27 28 23 24 24 30 36 42 44 47 47 47 49 50 51 51 51 51 51 50 50 50 49 49 49 48 48 48 47 47 47 46 45 44 44 43 43 43 43 43 42 43 42 40 39 37 37 37 37 38 38 38 39 39 38 38 39 41 41 41 41 42 42 42
25 23 22 19 18 22 24 20 21 20 17 16 21 18 18 21 18 21 15 22 29 31 26 23 17 25 30 30 33 42 43 46 48 49 49 51 50 50 51 50 51 50 50 49 49 49 49 48 48 48 47 47 46 45 45 45 44 43 43 43 43 42 41 40 40 37 36 35 34 34 36 35 36 36 37 37 37 40 40 40 41 41 41 41 43 43
24 25 20 21 20 21 24 23 25 22 16 15 27 29 24 23 21 21 22 27 29 28 22 23 23 31 31 33 31 40 44 43 47 50 50 50 50 49 48 49 50 50 50 49 49 49 49 48 47 47 48 47 47 44 45 45 44 44 44 43 41 40 39 36 35 34 33 32 32 33 34 34 35 36 36 37 38 39 39 40 40 42 42 43 43 43
25 24 19 18 17 17 23 26 20 20 18 42 35 32 25 23 15 20 26 19 22 20 29 22 20 25 28 32 37 40 41 49 50 49 49 49 50 50 49 49 49 50 50 49 49 49 48 48 48 48 48 47 45 46 45 43 43 43 43 42 41 39 37 35 33 33 33 33 32 33 34 35 35 35 36 36 38 39 39 40 41 40 41 41 41 41
25 23 23 20 17 18 17 18 19 19 36 37 39 40 36 25 26 28 27 25 26 22 25 24 22 21 27 29 33 36 36 38 48 49 49 49 49 49 48 48 48 49 49 49 49 49 49 48 48 48 48 48 46 44 43 42 42 41 42 42 40 39 35 33 32 31 32 32 32 32 33 34 34 35 35 36 37 38 39 40 41 40 40 40 40 40
25 22 22 18 20 15 15 15 17 36 35 37 35 37 34 28 27 28 23 22 33 29 24 23 24 23 24 25 32 34 37 35 38 46 50 49 49 49 48 48 48 49 50 50 49 49 49 49 48 48 48 47 44 43 43 42 42 41 41 41 40 36 34 32 31 30 32 32 31 32 32 33 34 35 35 36 37 38 39 39 39 40 40 40 40 39
23 22 23 21 21 19 13 13 17 25 22 32 32 32 35 36 34 37 30 27 33 26 28 25 26 28 32 29 32 35 42 35 38 42 48 49 49 49 48 49 49 48 50 49 49 49 49 49 48 49 47 45 44 44 43 43 42 40 40 40 38 35 32 31 30 30 31 31 31 32 32 33 32 34 35 36 36 37 39 39 40 39 40 38 38 37
23 24 22 19 17 16 17 16 18 20 22 28 33 32 35 30 33 39 28 21 27 28 27 27 26 29 29 30 36 44 41 40 41 44 48 49 49 48 47 47 49 49 49 49 49 48 48 48 48 47 46 44 44 44 43 42 41 40 40 39 37 33 31 31 29 30 30 31 31 30 32 32 33 34 35 36 38 39 39 39 40 40 41 40 39 39
24 22 22 16 21 16 16 13 15 18 29 25 32 31 26 28 38 31 22 21 30 29 28 29 27 28 31 32 46 46 42 39 40 43 49 49 49 48 48 46 46 48 48 48 48 48 48 48 47 46 44 43 43 43 42 40 40 40 39 37 35 32 30 30 30 29 31 31 31 31 32 34 35 36 36 36 38 39 39 39 39 40 39 40 36 35
20 19 18 18 13 16 19 15 17 26 34 33 29 32 31 41 33 26 23 19 41 42 28 30 29 31 32 37 47 44 45 49 48 47 50 49 47 47 48 48 46 48 47 47 48 47 47 46 46 44 42 43 42 42 41 40 39 39 38 37 34 32 32 31 31 30 30 30 30 31 31 33 35 37 37 37 38 39 39 40 40 41 41 40 38 38
20 22 21 21 14 12 15 14 15 16 37 35 35 33 37 37 29 26 44 45 47 41 40 31 33 34 36 39 45 44 47 47 50 51 49 48 47 47 48 47 47 47 48 47 48 47 47 45 46 43 42 43 42 41 41 39 39 38 37 35 33 33 31 30 30 30 30 30 29 31 34 35 37 38 39 38 39 40 40 40 40 42 40 37 38 40
21 21 13 13 19 17 17 15 13 15 37 45 36 33 39 31 32 40 43 44 44 42 37 35 40 42 41 44 47 47 47 48 50 49 48 48 48 47 46 48 47 46 47 48 47 47 46 45 44 42 43 43 41 41 40 38 38 37 36 34 34 32 30 30 31 30 30 31 32 35 35 37 38 38 39 39 39 39 38 39 39 40 39 39 40 41
24 21 19 19 21 16 14 17 20 32 38 44 36 33 36 44 46 47 44 39 42 43 41 37 39 43 47 47 47 48 49 49 49 49 48 47 47 47 47 46 46 45 48 48 47 46 46 44 43 43 43 42 41 40 38 37 37 36 34 34 32 31 32 31 30 30 32 34 34 35 35 35 37 38 38 38 38 38 39 40 39 38 38 39 38 37
25 24 32 21 23 20 26 30 36 44 41 44 45 44 45 47 46 47 46 43 43 44 44 42 45 47 48 47 50 50 48 49 48 48 48 48 47 46 46 46 47 46 47 47 46 46 45 44 43 43 42 41 40 39 37 36 36 35 34 33 32 31 31 32 32 34 34 33 34 35 33 35 35 36 36 36 37 36 37 38 39 38 39 39 38 37
32 40 41 35 23 31 34 38 39 37 43 45 46 46 44 44 44 46 46 44 46 45 47 44 47 47 47 49 48 48 48 48 48 47 47 47 46 45 46 45 46 47 46 47 47 45 44 43 43 42 41 40 40 37 37 35 33 34 34 32 32 31 32 32 33 34 33 32 33 33 32 34 33 33 35 37 35 37 36 37 38 38 38 37 40 40
36 33 33 29 30 26 26 35 35 40 42 43 44 46 46 44 44 45 47 46 46 48 48 48 48 49 49 49 48 48 47 47 47 47 47 46 45 45 45 46 47 47 46 46 46 45 44 43 42 41 41 41 40 35 34 33 31 32 32 32 31 31 31 31 34 35 34 34 32 33 32 34 33 34 36 36 35 35 36 35 36 37 37 40 40 40
35 35 31 28 28 27 32 39 39 40 41 43 45 41 40 42 42 46 46 47 46 48 49 49 49 48 48 48 48 47 47 47 46 46 45 45 45 45 44 45 46 46 47 46 45 44 43 42 41 39 38 38 36 34 33 30 29 29 30 30 30 30 31 34 33 33 32 31 31 31 32 34 33 34 34 34 34 34 35 36 38 37 40 38 40 39
37 35 27 28 25 27 34 42 43 39 38 38 38 40 41 42 43 43 43 43 45 45 43 46 48 47 47 49 48 48 46 46 46 46 45 44 44 44 44 44 46 46 46 45 45 44 43 41 39 39 38 36 34 33 32 31 31 29 31 30 29 30 33 34 34 33 31 30 30 32 33 35 34 34 35 35 36 36 42 37 36 38 36 37 35 35
32 31 27 26 26 25 29 41 39 32 34 41 40 41 43 44 44 44 43 42 41 44 44 44 46 48 48 49 48 47 46 46 46 47 45 44 45 45 46 45 46 46 46 45 44 43 42 41 40 39 36 34 33 32 31 31 32 31 28 28 28 32 35 35 34 33 31 31 32 32 33 34 33 34 35 34 33 36 37 32 33 35 32 32 33 33
40 39 35 35 34 33 36 40 42 42 41 43 44 43 45 44 44 44 42 42 42 44 44 45 45 45 46 47 47 47 46 46 45 45 44 44 46 46 45 45 45 45 45 44 43 43 41 40 39 37 35 33 33 31 31 32 31 31 30 28 30 33 34 33 33 32 31 32 32 32 34 33 33 33 33 33 34 36 34 33 34 32 33 34 33 33